Eden Prairie, MN

8:44 AM CDT on September 26, 2016 (GMT -0500)
Flying Cloud

Weather History for KFCM - December, 2012

Change the Weather History Date:

Friday, December 7, 2012

  Actual Average Record
Temperature  
Mean Temperature 26 °F -  
Max Temperature 30 °F 33 °F 46 °F (2015)
Min Temperature 21 °F 19 °F -14 °F (2013)
Degree Days  
Heating Degree Days 40    
Moisture  
Dew Point 23 °F    
Average Humidity 84    
Maximum Humidity 93    
Minimum Humidity 69    
Precipitation  
Precipitation 0.01 in - - ()
Sea Level Pressure  
Sea Level Pressure 30.04 in    
Wind  
Wind Speed 3 mph (NNE)    
Max Wind Speed 10 mph    
Max Gust Speed -    
Visibility 5 miles    
Events Snow    
Averages and records for this station are not official NWS values.
T = Trace of Precipitation, MM = Missing Value Source: NWS Daily Summary

Daily Weather History Graph

Daily Weather History Graph

Search for Another Location

Airport or City:

Trip Planner

Search our weather history database for the weather conditions in past years. The results will help you decide how hot, cold, wet, or windy it might be!

Date:

Astronomy

Dec. 07, 2012 Rise Set
Actual Time 7:38 AM CST 4:32 PM CST
Civil Twilight 7:04 AM CST 5:06 PM CST
Nautical Twilight 6:27 AM CST 5:43 PM CST
Astronomical Twilight 5:52 AM CST 6:18 PM CST
Moon 12:43 AM CST (12/7) 12:43 PM CST (12/7)
Length of Visible Light 10h 01m
Length of Day
8h 54m
Last Quarter, 38% of the Moon is Illuminated
Dec 7
Last Quarter
Dec 13
New
Dec 19
First Quarter
Dec 28
Full
Jan 4
Last Quarter

Hourly Weather History & Observations

Time (CST) Temp. Windchill Dew Point Humidity Pressure Visibility Wind Dir Wind Speed Gust Speed Precip Events Conditions
12:53 AM 27.0 °F - 19.0 °F 72% 30.03 in 10.0 mi Calm Calm - N/A   Clear
1:53 AM 25.0 °F 19.3 °F 19.0 °F 78% 30.04 in 10.0 mi WNW 4.6 mph - N/A   Clear
2:53 AM 25.0 °F - 19.0 °F 78% 30.05 in 10.0 mi Calm Calm - N/A   Clear
3:53 AM 26.1 °F 21.9 °F 19.0 °F 75% 30.04 in 10.0 mi NNW 3.5 mph - N/A   Clear
4:53 AM 25.0 °F - 19.0 °F 78% 30.04 in 10.0 mi Calm Calm - N/A   Clear
5:53 AM 25.0 °F - 19.0 °F 78% 30.04 in 10.0 mi Calm Calm - N/A   Clear
6:53 AM 23.0 °F - 19.0 °F 85% 30.05 in 10.0 mi Calm Calm - N/A   Clear
7:53 AM 21.9 °F - 18.0 °F 85% 30.05 in 8.0 mi Calm Calm - N/A   Clear
8:53 AM 26.1 °F - 21.0 °F 81% 30.06 in 8.0 mi Calm Calm - N/A   Overcast
9:53 AM 28.0 °F - 21.0 °F 75% 30.07 in 10.0 mi Calm Calm - N/A   Overcast
10:53 AM 28.9 °F 25.2 °F 21.0 °F 72% 30.08 in 10.0 mi NNW 3.5 mph - N/A   Overcast
11:53 AM 30.9 °F 27.5 °F 21.9 °F 69% 30.07 in 10.0 mi NNW 3.5 mph - N/A   Overcast
12:53 PM 30.9 °F 23.5 °F 21.9 °F 69% 30.07 in 10.0 mi NW 8.1 mph - N/A   Overcast
1:53 PM 30.0 °F 22.4 °F 23.0 °F 75% 30.06 in 2.5 mi NNW 8.1 mph - 0.00 in Snow Light Snow
2:08 PM 28.4 °F 19.7 °F 24.8 °F 86% 30.02 in 1.0 mi North 9.2 mph - 0.00 in Snow Light Snow
2:22 PM 28.4 °F 19.1 °F 24.8 °F 86% 30.01 in 0.8 mi North 10.4 mph - 0.00 in Snow Light Snow
2:53 PM 28.9 °F 21.9 °F 25.0 °F 85% 30.05 in 0.8 mi North 6.9 mph - 0.00 in Snow Light Snow
3:01 PM 28.4 °F 21.2 °F 24.8 °F 86% 30.01 in 1.0 mi North 6.9 mph - 0.00 in Snow Light Snow
3:42 PM 28.4 °F 22.2 °F 26.6 °F 93% 30.01 in 1.5 mi NNE 5.8 mph - 0.01 in Snow Light Snow
3:53 PM 28.9 °F 21.1 °F 26.1 °F 89% 30.05 in 1.5 mi NNE 8.1 mph - 0.01 in Snow Light Snow
4:23 PM 28.4 °F 22.2 °F 26.6 °F 93% 30.02 in 1.5 mi NNE 5.8 mph - 0.00 in Snow Light Snow
4:53 PM 28.9 °F 21.1 °F 25.0 °F 85% 30.05 in 1.5 mi NNE 8.1 mph - 0.00 in Snow Light Snow
5:07 PM 28.4 °F 22.2 °F 24.8 °F 86% 30.01 in 1.2 mi NNE 5.8 mph - 0.00 in Snow Light Snow
5:53 PM 28.9 °F 22.8 °F 25.0 °F 85% 30.06 in 1.5 mi NNE 5.8 mph - 0.00 in Snow Light Snow
6:10 PM 28.4 °F 22.2 °F 26.6 °F 93% 30.02 in 1.5 mi NNE 5.8 mph - 0.01 in Snow Light Snow
6:39 PM 28.4 °F 22.2 °F 24.8 °F 86% 30.02 in 2.0 mi NNE 5.8 mph - 0.01 in Snow Light Snow
7:07 PM 28.4 °F 22.2 °F 24.8 °F 86% 30.02 in 3.0 mi NNE 5.8 mph - 0.00 in Snow Light Snow
7:21 PM 28.4 °F 23.3 °F 24.8 °F 86% 30.02 in 3.0 mi NNE 4.6 mph - 0.00 in Snow Light Snow
7:30 PM 28.4 °F 24.6 °F 24.8 °F 86% 30.03 in 2.5 mi NNE 3.5 mph - 0.00 in Snow Light Snow
7:53 PM 28.0 °F 20.8 °F 25.0 °F 88% 30.06 in 2.5 mi NNE 6.9 mph - 0.00 in Snow Light Snow
8:22 PM 28.4 °F 23.3 °F 24.8 °F 86% 30.02 in 3.0 mi NE 4.6 mph - 0.00 in Snow Light Snow
8:42 PM 28.4 °F 24.6 °F 24.8 °F 86% 30.02 in 3.0 mi NE 3.5 mph - 0.00 in Snow Light Snow
8:53 PM 28.0 °F 24.2 °F 25.0 °F 88% 30.06 in 4.0 mi NE 3.5 mph - 0.00 in   Overcast
9:01 PM 28.4 °F 23.3 °F 24.8 °F 86% 30.02 in 5.0 mi NE 4.6 mph - N/A   Overcast
9:53 PM 28.0 °F - 25.0 °F 88% 30.06 in 4.0 mi Calm Calm - N/A   Overcast
10:05 PM 28.4 °F - 24.8 °F 86% 30.02 in 4.0 mi Calm Calm - N/A   Overcast
10:23 PM 28.4 °F - 24.8 °F 86% 30.02 in 2.5 mi Calm Calm - 0.00 in Snow Light Snow
10:53 PM 28.0 °F - 25.0 °F 88% 30.05 in 1.8 mi Calm Calm - 0.00 in Snow Light Snow
11:02 PM 26.6 °F - 24.8 °F 93% 30.02 in 2.0 mi Calm Calm - 0.00 in Snow Light Snow
11:50 PM 26.6 °F 22.6 °F 24.8 °F 93% 30.02 in 3.0 mi North 3.5 mph - 0.00 in   Overcast
11:53 PM 26.1 °F 21.9 °F 24.1 °F 92% 30.06 in 3.0 mi North 3.5 mph - 0.00 in   Overcast